Regional Weather Roundup
Issued by NWS

Home | Current Version | Previous Version | Graphics & Text | Print | Product List | Glossary On
Versions: 1 2 3 4 5 6 7 8 9 10 11 12 13 14 15 16 17 18 19 20 21 22 23 24 25 26 27 28 29 30 31 32 33 34 35 36 37 38 39 40 41 42 43 44 45 46 47 48 49 50
000
ASUS43 KFSD 162110
RWRSD

WEATHER ROUNDUP FOR SOUTH DAKOTA
NATIONAL WEATHER SERVICE SIOUX FALLS SD
400 PM CDT WED APR 16 2014

NOTE: "FAIR" INDICATES FEW OR NO CLOUDS BELOW 12,000 FEET WITH NO
SIGNIFICANT WEATHER AND/OR OBSTRUCTIONS TO VISIBILITY.


SDZ001>005-009-010-012>017-162200-
NORTHWEST AND NORTH CENTRAL SOUTH DAKOTA

CITY           SKY/WX    TMP DP  RH WIND       PRES   REMARKS
BUFFALO          N/A     35  23  61 E17G28    30.00R WCI  25
FAITH            N/A     35  24  64 N16       30.05R WCI  25
MOBRIDGE       MOSUNNY   38  23  55 NE17G24   30.05R
$$

SDZ012>016-024>037-041>051-057-063-072>074-162200-
SOUTHWEST AND SOUTH CENTRAL SOUTH DAKOTA

CITY           SKY/WX    TMP DP  RH WIND       PRES   REMARKS
RAPID CTY ARPT PTSUNNY   47  28  47 N16G22    30.00R
PIERRE         CLOUDY    36  26  67 N18       30.04R
CUSTER         PTSUNNY   43  20  39 VRB6      29.93R
ELLSWORTH AFB  CLOUDY    45  28  50 N12G18    30.00R
PHILIP         CLOUDY    37  27  67 NE16      30.05R
PINE RIDGE     CLOUDY    42  32  67 N14       30.00R
SPEARFISH      PTSUNNY   41  28  60 N9        30.00S
WINNER         CLOUDY    34  27  75 N23       30.00R WCI  22
$$

SDZ004>011-016>023-039-040-162200-
NORTHEAST SOUTH DAKOTA

CITY           SKY/WX    TMP DP  RH WIND       PRES   REMARKS
ABERDEEN       CLOUDY    32  24  72 NE23G30   30.04R WCI  19
WATERTOWN      CLOUDY    28  24  85 NE22G32   29.93R FOG     WCI  14
SISSETON         N/A     31  26  82 NE18      30.02R WCI  19
$$

SDZ017-020-022-023-036>040-048>070-162200-
SOUTHEAST SOUTH DAKOTA

CITY           SKY/WX    TMP DP  RH WIND       PRES   REMARKS
SIOUX FALLS    SNOW      33  32  96 N22G28    29.78R VSB 1/2 WCI  21
HURON          CLOUDY    33  26  75 N17G30    29.98R WCI  22
CHAMBERLAIN      N/A     33  27  78 N18G31    30.00R WCI  22
MITCHELL       CLOUDY    34  27  75 N26G32    29.93R WCI  21
YANKTON        CLOUDY   N/A N/A N/A NW36      29.81R
$$

ABBREVIATIONS USED IN REMARKS
   TC - TEMPERATURE IN CELSIUS
  WCI - WIND CHILL INDEX
   HX - HEAT INDEX
  VSB - VISIBILITY




USA.gov is the U.S. government's official web portal to all federal, state and local government web resources and services.